Time,TemperatureF,DewpointF,PressureIn,WindDirection,WindDirectionDegrees,WindSpeedMPH,WindSpeedGustMPH,Humidity,HourlyPrecipIn,Conditions,Clouds,dailyrainin,SoftwareType,DateUTC
2013-01-02 00:00:00,53.7,52.3,29.90,North,11,0.0,0.0,95,0.00,,,0.00,Wunderground v.1.15,2013-01-02 05:00:00,
2013-01-02 00:05:00,53.7,52.3,29.90,North,11,0.0,0.0,95,0.00,,,0.00,Wunderground v.1.15,2013-01-02 05:05:00,
2013-01-02 00:15:00,53.7,52.3,29.90,North,11,0.0,0.0,95,0.00,,,0.01,Wunderground v.1.15,2013-01-02 05:15:00,
2013-01-02 00:20:00,53.7,52.3,29.90,North,11,0.0,0.0,95,0.00,,,0.01,Wunderground v.1.15,2013-01-02 05:20:00,
2013-01-02 00:25:00,53.8,52.4,29.89,North,11,0.0,0.0,95,0.00,,,0.01,Wunderground v.1.15,2013-01-02 05:25:00,
2013-01-02 00:30:00,53.7,52.3,29.89,North,11,0.0,0.0,95,0.00,,,0.01,Wunderground v.1.15,2013-01-02 05:30:00,
2013-01-02 00:35:00,53.8,52.4,29.89,North,11,0.0,0.0,95,0.00,,,0.01,Wunderground v.1.15,2013-01-02 05:35:00,
2013-01-02 00:40:00,53.7,52.3,29.89,North,11,0.0,0.0,95,0.00,,,0.01,Wunderground v.1.15,2013-01-02 05:40:00,
2013-01-02 00:50:00,53.7,52.3,29.89,North,11,0.0,0.0,95,0.00,,,0.01,Wunderground v.1.15,2013-01-02 05:50:00,
2013-01-02 00:55:00,53.8,52.4,29.89,North,11,0.0,0.0,95,0.00,,,0.01,Wunderground v.1.15,2013-01-02 05:55:00,
2013-01-02 01:00:00,53.8,52.7,29.89,North,11,0.0,0.0,96,0.00,,,0.01,Wunderground v.1.15,2013-01-02 06:00:00,
2013-01-02 01:05:00,53.8,52.7,29.88,North,11,0.0,0.0,96,0.00,,,0.01,Wunderground v.1.15,2013-01-02 06:05:00,
2013-01-02 01:15:00,53.9,52.8,29.88,North,11,0.0,0.0,96,0.00,,,0.01,Wunderground v.1.15,2013-01-02 06:15:00,
2013-01-02 01:20:00,53.9,52.8,29.88,North,11,0.0,0.0,96,0.00,,,0.01,Wunderground v.1.15,2013-01-02 06:20:00,
2013-01-02 01:25:00,53.9,52.8,29.88,North,11,0.0,0.0,96,0.00,,,0.01,Wunderground v.1.15,2013-01-02 06:25:00,
2013-01-02 01:30:00,53.9,52.8,29.88,North,11,0.0,0.0,96,0.00,,,0.01,Wunderground v.1.15,2013-01-02 06:30:00,
2013-01-02 01:40:00,53.9,52.8,29.88,North,11,0.0,0.0,96,0.00,,,0.01,Wunderground v.1.15,2013-01-02 06:40:00,
2013-01-02 01:45:00,54.0,52.9,29.88,North,11,0.0,0.0,96,0.00,,,0.01,Wunderground v.1.15,2013-01-02 06:45:00,
2013-01-02 01:50:00,54.0,52.9,29.88,North,11,0.0,0.0,96,0.00,,,0.01,Wunderground v.1.15,2013-01-02 06:50:00,
2013-01-02 01:55:00,54.1,53.0,29.89,North,11,0.0,0.0,96,0.00,,,0.01,Wunderground v.1.15,2013-01-02 06:55:00,
2013-01-02 02:00:00,54.1,53.0,29.89,North,11,0.0,0.0,96,0.00,,,0.01,Wunderground v.1.15,2013-01-02 07:00:00,
2013-01-02 02:05:00,54.1,53.0,29.89,North,11,0.0,0.0,96,0.00,,,0.01,Wunderground v.1.15,2013-01-02 07:05:00,
2013-01-02 02:15:00,54.2,53.1,29.88,North,11,0.0,0.0,96,0.00,,,0.01,Wunderground v.1.15,2013-01-02 07:15:00,
2013-01-02 02:20:00,54.3,53.2,29.88,North,11,0.0,0.0,96,0.00,,,0.02,Wunderground v.1.15,2013-01-02 07:20:00,
2013-01-02 02:30:00,54.4,53.3,29.89,North,11,0.0,0.0,96,0.00,,,0.02,Wunderground v.1.15,2013-01-02 07:30:00,
2013-01-02 02:35:00,54.4,53.3,29.90,North,11,0.0,0.0,96,0.00,,,0.02,Wunderground v.1.15,2013-01-02 07:35:00,
2013-01-02 02:40:00,54.4,53.3,29.89,West,270,0.0,0.0,96,0.00,,,0.02,Wunderground v.1.15,2013-01-02 07:40:00,
2013-01-02 02:45:00,54.3,53.2,29.89,West,268,0.0,0.0,96,0.00,,,0.03,Wunderground v.1.15,2013-01-02 07:45:00,
2013-01-02 02:50:00,54.2,53.1,29.89,West,271,0.0,0.0,96,0.00,,,0.03,Wunderground v.1.15,2013-01-02 07:50:00,
2013-01-02 03:00:00,53.8,52.7,29.90,West,271,0.0,0.0,96,0.00,,,0.03,Wunderground v.1.15,2013-01-02 08:00:00,
2013-01-02 03:05:00,53.7,52.6,29.90,West,275,0.0,0.0,96,0.00,,,0.03,Wunderground v.1.15,2013-01-02 08:05:00,
2013-01-02 03:15:00,53.5,52.4,29.90,North,357,0.0,0.0,96,0.00,,,0.03,Wunderground v.1.15,2013-01-02 08:15:00,
2013-01-02 03:20:00,53.3,52.2,29.90,WNW,300,0.0,0.0,96,0.00,,,0.03,Wunderground v.1.15,2013-01-02 08:20:00,
2013-01-02 03:25:00,53.3,52.2,29.90,WNW,300,0.0,0.0,96,0.00,,,0.03,Wunderground v.1.15,2013-01-02 08:25:00,
2013-01-02 03:35:00,53.1,52.0,29.89,WNW,300,0.0,0.0,96,0.00,,,0.03,Wunderground v.1.15,2013-01-02 08:35:00,
2013-01-02 03:40:00,53.1,52.0,29.89,WNW,300,0.0,0.0,96,0.00,,,0.03,Wunderground v.1.15,2013-01-02 08:40:00,
2013-01-02 03:45:00,53.0,51.9,29.88,WNW,300,0.0,0.0,96,0.00,,,0.03,Wunderground v.1.15,2013-01-02 08:45:00,
2013-01-02 03:50:00,53.0,51.9,29.88,WNW,300,0.0,0.0,96,0.00,,,0.03,Wunderground v.1.15,2013-01-02 08:50:00,
2013-01-02 03:55:00,52.9,51.8,29.88,WNW,300,0.0,0.0,96,0.00,,,0.03,Wunderground v.1.15,2013-01-02 08:55:00,
2013-01-02 04:00:00,52.9,51.8,29.88,WNW,300,0.0,0.0,96,0.00,,,0.03,Wunderground v.1.15,2013-01-02 09:00:00,
2013-01-02 04:05:00,52.8,51.7,29.88,WNW,300,0.0,0.0,96,0.00,,,0.03,Wunderground v.1.15,2013-01-02 09:05:00,
2013-01-02 04:15:00,52.8,51.7,29.88,WNW,300,0.0,0.0,96,0.00,,,0.03,Wunderground v.1.15,2013-01-02 09:15:00,
2013-01-02 04:20:00,52.8,51.7,29.88,WNW,300,0.0,0.0,96,0.00,,,0.03,Wunderground v.1.15,2013-01-02 09:20:00,
2013-01-02 04:25:00,52.7,51.6,29.88,WNW,300,0.0,0.0,96,0.00,,,0.03,Wunderground v.1.15,2013-01-02 09:25:00,
2013-01-02 04:30:00,52.8,51.7,29.89,WNW,300,0.0,0.0,96,0.00,,,0.03,Wunderground v.1.15,2013-01-02 09:30:00,
2013-01-02 04:35:00,52.8,51.7,29.89,WNW,300,0.0,0.0,96,0.00,,,0.03,Wunderground v.1.15,2013-01-02 09:35:00,
2013-01-02 04:40:00,52.8,51.7,29.89,WNW,300,0.0,0.0,96,0.00,,,0.04,Wunderground v.1.15,2013-01-02 09:40:00,
2013-01-02 04:45:00,52.8,51.7,29.89,WNW,300,0.0,0.0,96,0.00,,,0.04,Wunderground v.1.15,2013-01-02 09:45:00,
2013-01-02 04:50:00,52.7,51.6,29.89,WNW,300,0.0,0.0,96,0.00,,,0.04,Wunderground v.1.15,2013-01-02 09:50:00,
2013-01-02 04:55:00,52.7,51.6,29.89,WNW,300,0.0,0.0,96,0.00,,,0.04,Wunderground v.1.15,2013-01-02 09:55:00,
2013-01-02 05:00:00,52.7,51.6,29.88,WNW,300,0.0,0.0,96,0.00,,,0.05,Wunderground v.1.15,2013-01-02 10:00:00,
2013-01-02 05:05:00,52.6,51.5,29.90,WNW,300,0.0,1.0,96,0.00,,,0.05,Wunderground v.1.15,2013-01-02 10:05:00,
2013-01-02 05:15:00,52.6,51.5,29.89,WNW,300,0.0,0.0,96,0.00,,,0.05,Wunderground v.1.15,2013-01-02 10:15:00,
2013-01-02 05:20:00,52.6,51.8,29.91,WNW,300,0.0,0.0,97,0.00,,,0.05,Wunderground v.1.15,2013-01-02 10:20:00,
2013-01-02 05:25:00,52.5,51.7,29.91,WNW,300,0.0,0.0,97,0.00,,,0.05,Wunderground v.1.15,2013-01-02 10:25:00,
2013-01-02 05:30:00,52.4,51.6,29.91,WNW,300,0.0,0.0,97,0.00,,,0.05,Wunderground v.1.15,2013-01-02 10:30:00,
2013-01-02 05:35:00,52.3,51.2,29.92,WNW,300,0.0,0.0,96,0.00,,,0.05,Wunderground v.1.15,2013-01-02 10:35:00,
2013-01-02 05:45:00,52.1,51.0,29.91,WNW,300,0.0,1.0,96,0.00,,,0.06,Wunderground v.1.15,2013-01-02 10:45:00,
2013-01-02 05:50:00,52.1,51.0,29.91,WNW,300,0.0,0.0,96,0.00,,,0.06,Wunderground v.1.15,2013-01-02 10:50:00,
2013-01-02 05:55:00,52.0,50.9,29.92,WNW,300,0.0,0.0,96,0.00,,,0.06,Wunderground v.1.15,2013-01-02 10:55:00,
2013-01-02 06:00:00,52.0,51.2,29.93,WNW,300,0.0,0.0,97,0.00,,,0.06,Wunderground v.1.15,2013-01-02 11:00:00,
2013-01-02 06:05:00,51.9,51.1,29.93,WNW,300,0.0,0.0,97,0.00,,,0.06,Wunderground v.1.15,2013-01-02 11:05:00,
2013-01-02 06:15:00,51.8,51.0,29.93,WNW,300,0.0,0.0,97,0.00,,,0.06,Wunderground v.1.15,2013-01-02 11:15:00,
2013-01-02 06:20:00,51.8,50.7,29.94,WNW,300,0.0,0.0,96,0.00,,,0.06,Wunderground v.1.15,2013-01-02 11:20:00,
2013-01-02 06:25:00,51.8,50.7,29.94,WNW,300,0.0,0.0,96,0.00,,,0.06,Wunderground v.1.15,2013-01-02 11:25:00,
2013-01-02 06:30:00,51.8,51.0,29.94,WNW,300,0.0,0.0,97,0.00,,,0.06,Wunderground v.1.15,2013-01-02 11:30:00,
2013-01-02 06:35:00,51.7,50.9,29.94,WNW,300,0.0,0.0,97,0.00,,,0.06,Wunderground v.1.15,2013-01-02 11:35:00,
2013-01-02 06:40:00,51.7,50.9,29.94,WNW,300,0.0,0.0,97,0.00,,,0.06,Wunderground v.1.15,2013-01-02 11:40:00,
2013-01-02 06:45:00,51.7,50.9,29.94,WNW,300,0.0,0.0,97,0.00,,,0.06,Wunderground v.1.15,2013-01-02 11:45:00,
2013-01-02 06:55:00,51.6,50.8,29.95,WNW,300,0.0,1.0,97,0.00,,,0.06,Wunderground v.1.15,2013-01-02 11:55:00,
2013-01-02 07:00:00,51.6,50.8,29.95,WNW,300,0.0,0.0,97,0.00,,,0.06,Wunderground v.1.15,2013-01-02 12:00:00,
2013-01-02 07:05:00,51.6,50.8,29.95,WNW,300,0.0,0.0,97,0.00,,,0.06,Wunderground v.1.15,2013-01-02 12:05:00,
2013-01-02 07:15:00,51.6,50.8,29.96,WNW,300,0.0,2.0,97,0.00,,,0.06,Wunderground v.1.15,2013-01-02 12:15:00,
2013-01-02 07:20:00,51.6,50.8,29.97,WNW,300,0.0,0.0,97,0.00,,,0.06,Wunderground v.1.15,2013-01-02 12:20:00,
2013-01-02 07:25:00,51.6,50.8,29.97,WNW,300,0.0,0.0,97,0.00,,,0.06,Wunderground v.1.15,2013-01-02 12:25:00,
2013-01-02 07:30:00,51.6,50.8,29.97,WNW,300,0.0,0.0,97,0.00,,,0.06,Wunderground v.1.15,2013-01-02 12:30:00,
2013-01-02 07:40:00,51.6,50.8,29.97,WNW,300,0.0,0.0,97,0.00,,,0.06,Wunderground v.1.15,2013-01-02 12:40:00,
2013-01-02 07:45:00,51.6,50.8,29.97,WNW,300,0.0,0.0,97,0.00,,,0.06,Wunderground v.1.15,2013-01-02 12:45:00,
2013-01-02 07:50:00,51.6,50.8,29.97,WNW,300,0.0,0.0,97,0.00,,,0.06,Wunderground v.1.15,2013-01-02 12:50:00,
2013-01-02 08:00:00,51.6,50.8,29.98,WNW,300,0.0,0.0,97,0.00,,,0.06,Wunderground v.1.15,2013-01-02 13:00:00,
2013-01-02 08:05:00,51.7,50.9,29.97,WNW,300,0.0,0.0,97,0.00,,,0.06,Wunderground v.1.15,2013-01-02 13:05:00,
2013-01-02 08:15:00,51.7,50.9,29.98,WNW,300,0.0,0.0,97,0.00,,,0.06,Wunderground v.1.15,2013-01-02 13:15:00,
2013-01-02 08:20:00,51.7,50.9,29.98,WNW,300,0.0,0.0,97,0.00,,,0.06,Wunderground v.1.15,2013-01-02 13:20:00,
2013-01-02 08:25:00,51.7,50.9,29.98,WNW,300,0.0,0.0,97,0.00,,,0.06,Wunderground v.1.15,2013-01-02 13:25:00,
2013-01-02 08:35:00,51.8,51.0,29.99,WNW,300,0.0,0.0,97,0.00,,,0.06,Wunderground v.1.15,2013-01-02 13:35:00,
2013-01-02 08:40:00,51.9,51.1,29.99,WNW,300,0.0,0.0,97,0.00,,,0.06,Wunderground v.1.15,2013-01-02 13:40:00,
2013-01-02 08:45:00,51.9,51.1,29.99,WNW,300,0.0,0.0,97,0.00,,,0.06,Wunderground v.1.15,2013-01-02 13:45:00,
2013-01-02 08:55:00,52.1,51.3,29.99,WNW,300,0.0,1.0,97,0.00,,,0.06,Wunderground v.1.15,2013-01-02 13:55:00,
2013-01-02 09:05:00,52.2,51.4,29.99,WNW,300,0.0,0.0,97,0.00,,,0.06,Wunderground v.1.15,2013-01-02 14:05:00,
2013-01-02 09:15:00,52.4,51.6,30.00,WNW,300,0.0,0.0,97,0.00,,,0.06,Wunderground v.1.15,2013-01-02 14:15:00,
2013-01-02 09:20:00,52.5,51.7,29.99,WNW,300,0.0,2.0,97,0.00,,,0.06,Wunderground v.1.15,2013-01-02 14:20:00,
2013-01-02 09:30:00,52.6,51.8,30.01,WNW,300,0.0,0.0,97,0.00,,,0.06,Wunderground v.1.15,2013-01-02 14:30:00,
2013-01-02 09:35:00,52.6,51.8,30.01,WNW,300,0.0,0.0,97,0.00,,,0.06,Wunderground v.1.15,2013-01-02 14:35:00,
2013-01-02 09:40:00,52.7,51.9,30.01,WNW,300,0.0,0.0,97,0.00,,,0.06,Wunderground v.1.15,2013-01-02 14:40:00,
2013-01-02 09:45:00,52.7,51.9,30.02,WNW,300,0.0,0.0,97,0.00,,,0.06,Wunderground v.1.15,2013-01-02 14:45:00,
2013-01-02 09:50:00,52.8,52.0,30.02,WNW,300,0.0,1.0,97,0.00,,,0.06,Wunderground v.1.15,2013-01-02 14:50:00,
2013-01-02 09:55:00,53.0,52.2,30.03,WNW,300,0.0,1.0,97,0.00,,,0.06,Wunderground v.1.15,2013-01-02 14:55:00,
2013-01-02 10:00:00,53.1,52.3,30.03,WNW,300,0.0,0.0,97,0.00,,,0.06,Wunderground v.1.15,2013-01-02 15:00:00,
2013-01-02 10:05:00,53.2,52.4,30.02,North,2,0.0,0.0,97,0.00,,,0.06,Wunderground v.1.15,2013-01-02 15:05:00,
2013-01-02 10:15:00,53.2,52.4,30.02,North,2,0.0,3.0,97,0.00,,,0.06,Wunderground v.1.15,2013-01-02 15:15:00,
2013-01-02 10:20:00,53.3,52.5,30.02,North,2,0.0,0.0,97,0.00,,,0.06,Wunderground v.1.15,2013-01-02 15:20:00,
2013-01-02 10:25:00,53.4,52.6,30.03,North,11,0.0,0.0,97,0.00,,,0.06,Wunderground v.1.15,2013-01-02 15:25:00,
2013-01-02 10:30:00,53.4,52.6,30.02,North,11,0.0,0.0,97,0.00,,,0.06,Wunderground v.1.15,2013-01-02 15:30:00,
2013-01-02 10:35:00,53.6,52.8,30.03,North,11,0.0,0.0,97,0.00,,,0.06,Wunderground v.1.15,2013-01-02 15:35:00,
2013-01-02 10:45:00,53.9,53.1,30.03,North,11,0.0,0.0,97,0.00,,,0.06,Wunderground v.1.15,2013-01-02 15:45:00,
2013-01-02 10:55:00,54.2,53.4,30.02,North,11,0.0,0.0,97,0.00,,,0.06,Wunderground v.1.15,2013-01-02 15:55:00,
2013-01-02 11:00:00,54.2,53.4,30.02,North,11,0.0,0.0,97,0.00,,,0.06,Wunderground v.1.15,2013-01-02 16:00:00,
2013-01-02 11:05:00,54.1,53.3,30.03,North,11,0.0,0.0,97,0.00,,,0.06,Wunderground v.1.15,2013-01-02 16:05:00,
2013-01-02 11:15:00,54.8,54.0,30.03,North,11,0.0,0.0,97,0.00,,,0.06,Wunderground v.1.15,2013-01-02 16:15:00,
2013-01-02 11:20:00,54.5,53.4,30.03,North,11,0.0,0.0,96,0.00,,,0.06,Wunderground v.1.15,2013-01-02 16:20:00,
2013-01-02 11:25:00,54.4,53.3,30.03,North,11,0.0,0.0,96,0.00,,,0.06,Wunderground v.1.15,2013-01-02 16:25:00,
2013-01-02 11:30:00,54.5,53.1,30.03,North,11,0.0,0.0,95,0.00,,,0.06,Wunderground v.1.15,2013-01-02 16:30:00,
2013-01-02 11:35:00,55.0,53.6,30.02,North,11,0.0,0.0,95,0.00,,,0.06,Wunderground v.1.15,2013-01-02 16:35:00,
2013-01-02 11:40:00,55.2,53.5,30.02,North,11,0.0,0.0,94,0.00,,,0.06,Wunderground v.1.15,2013-01-02 16:40:00,
2013-01-02 11:50:00,55.2,53.2,30.01,North,11,0.0,0.0,93,0.00,,,0.06,Wunderground v.1.15,2013-01-02 16:50:00,
2013-01-02 11:55:00,55.4,53.1,30.01,North,11,0.0,0.0,92,0.00,,,0.06,Wunderground v.1.15,2013-01-02 16:55:00,
2013-01-02 12:00:00,55.7,53.4,30.01,North,11,0.0,1.0,92,0.00,,,0.06,Wunderground v.1.15,2013-01-02 17:00:00,
2013-01-02 12:05:00,55.6,53.3,30.00,North,11,0.0,1.0,92,0.00,,,0.06,Wunderground v.1.15,2013-01-02 17:05:00,
2013-01-02 12:15:00,56.0,53.1,30.00,North,11,0.0,0.0,90,0.00,,,0.06,Wunderground v.1.15,2013-01-02 17:15:00,
2013-01-02 12:25:00,56.5,53.6,30.01,North,11,0.0,0.0,90,0.00,,,0.06,Wunderground v.1.15,2013-01-02 17:25:00,
2013-01-02 12:30:00,56.9,53.7,30.01,North,11,0.0,0.0,89,0.00,,,0.06,Wunderground v.1.15,2013-01-02 17:30:00,
2013-01-02 12:35:00,57.4,53.6,30.00,North,11,1.0,1.0,87,0.00,,,0.06,Wunderground v.1.15,2013-01-02 17:35:00,
2013-01-02 12:40:00,58.1,54.2,30.00,North,11,1.0,2.0,87,0.00,,,0.06,Wunderground v.1.15,2013-01-02 17:40:00,
2013-01-02 12:45:00,57.6,53.4,30.00,North,11,0.0,2.0,86,0.00,,,0.06,Wunderground v.1.15,2013-01-02 17:45:00,
2013-01-02 12:50:00,57.2,53.4,30.00,North,11,0.0,0.0,87,0.00,,,0.06,Wunderground v.1.15,2013-01-02 17:50:00,
2013-01-02 13:00:00,57.6,53.8,29.99,North,11,0.0,0.0,87,0.00,,,0.06,Wunderground v.1.15,2013-01-02 18:00:00,
2013-01-02 13:05:00,57.9,53.7,29.99,North,11,0.0,2.0,86,0.00,,,0.06,Wunderground v.1.15,2013-01-02 18:05:00,
2013-01-02 13:15:00,58.5,54.3,29.98,NNE,16,0.0,1.0,86,0.00,,,0.06,Wunderground v.1.15,2013-01-02 18:15:00,
2013-01-02 13:20:00,59.1,54.3,29.98,NNE,16,0.0,0.0,84,0.00,,,0.06,Wunderground v.1.15,2013-01-02 18:20:00,
2013-01-02 13:30:00,59.8,54.3,29.98,SE,136,1.0,1.0,82,0.00,,,0.06,Wunderground v.1.15,2013-01-02 18:30:00,
2013-01-02 13:35:00,59.7,53.9,29.98,SE,137,1.0,1.0,81,0.00,,,0.06,Wunderground v.1.15,2013-01-02 18:35:00,
2013-01-02 13:40:00,59.0,53.2,29.98,SE,137,0.0,0.0,81,0.00,,,0.06,Wunderground v.1.15,2013-01-02 18:40:00,
2013-01-02 13:45:00,58.7,53.2,29.98,NNE,29,0.0,0.0,82,0.00,,,0.06,Wunderground v.1.15,2013-01-02 18:45:00,
2013-01-02 13:50:00,58.3,53.2,29.98,NE,39,0.0,0.0,83,0.00,,,0.06,Wunderground v.1.15,2013-01-02 18:50:00,
2013-01-02 13:55:00,58.2,53.1,29.98,NE,52,1.0,1.0,83,0.00,,,0.06,Wunderground v.1.15,2013-01-02 18:55:00,
2013-01-02 14:05:00,58.2,53.4,29.98,NE,52,0.0,0.0,84,0.00,,,0.06,Wunderground v.1.15,2013-01-02 19:05:00,
2013-01-02 14:15:00,58.5,53.7,29.98,NE,52,0.0,0.0,84,0.00,,,0.06,Wunderground v.1.15,2013-01-02 19:15:00,
2013-01-02 14:20:00,58.5,53.4,29.98,ENE,67,0.0,0.0,83,0.00,,,0.06,Wunderground v.1.15,2013-01-02 19:20:00,
2013-01-02 14:25:00,58.6,53.1,29.98,ENE,67,0.0,0.0,82,0.00,,,0.06,Wunderground v.1.15,2013-01-02 19:25:00,
2013-01-02 14:30:00,59.1,53.3,29.98,ENE,67,0.0,0.0,81,0.00,,,0.06,Wunderground v.1.15,2013-01-02 19:30:00,
2013-01-02 14:35:00,59.0,52.8,29.99,ENE,74,0.0,0.0,80,0.00,,,0.06,Wunderground v.1.15,2013-01-02 19:35:00,
2013-01-02 14:40:00,58.8,52.6,29.99,ENE,75,0.0,0.0,80,0.00,,,0.06,Wunderground v.1.15,2013-01-02 19:40:00,
2013-01-02 14:45:00,59.0,52.8,29.99,ENE,75,0.0,0.0,80,0.00,,,0.06,Wunderground v.1.15,2013-01-02 19:45:00,
2013-01-02 14:50:00,59.1,52.9,29.99,ENE,75,0.0,0.0,80,0.00,,,0.06,Wunderground v.1.15,2013-01-02 19:50:00,
2013-01-02 14:55:00,59.0,53.2,29.99,ENE,75,0.0,0.0,81,0.00,,,0.06,Wunderground v.1.15,2013-01-02 19:55:00,
2013-01-02 15:00:00,58.9,53.1,29.98,ENE,75,0.0,0.0,81,0.00,,,0.06,Wunderground v.1.15,2013-01-02 20:00:00,
2013-01-02 15:05:00,59.1,52.6,29.98,ENE,75,0.0,0.0,79,0.00,,,0.06,Wunderground v.1.15,2013-01-02 20:05:00,
2013-01-02 15:15:00,59.5,52.6,29.98,ENE,75,0.0,0.0,78,0.00,,,0.06,Wunderground v.1.15,2013-01-02 20:15:00,
2013-01-02 15:20:00,59.5,52.6,29.98,ENE,75,0.0,0.0,78,0.00,,,0.06,Wunderground v.1.15,2013-01-02 20:20:00,
2013-01-02 15:25:00,59.5,52.6,29.99,ENE,75,0.0,0.0,78,0.00,,,0.06,Wunderground v.1.15,2013-01-02 20:25:00,
2013-01-02 15:30:00,59.5,53.0,29.99,ENE,75,0.0,0.0,79,0.00,,,0.06,Wunderground v.1.15,2013-01-02 20:30:00,
2013-01-02 15:35:00,59.3,52.4,29.98,East,83,0.0,0.0,78,0.00,,,0.06,Wunderground v.1.15,2013-01-02 20:35:00,
2013-01-02 15:45:00,59.5,52.6,29.99,East,84,0.0,0.0,78,0.00,,,0.06,Wunderground v.1.15,2013-01-02 20:45:00,
2013-01-02 15:50:00,59.4,52.5,29.99,East,84,0.0,0.0,78,0.00,,,0.06,Wunderground v.1.15,2013-01-02 20:50:00,
2013-01-02 15:55:00,59.4,52.5,29.99,East,84,0.0,0.0,78,0.00,,,0.06,Wunderground v.1.15,2013-01-02 20:55:00,
2013-01-02 16:00:00,59.4,52.2,29.99,East,84,0.0,0.0,77,0.00,,,0.06,Wunderground v.1.15,2013-01-02 21:00:00,
2013-01-02 16:05:00,59.4,52.5,29.99,East,84,0.0,0.0,78,0.00,,,0.06,Wunderground v.1.15,2013-01-02 21:05:00,
2013-01-02 16:15:00,59.5,52.3,30.00,East,84,0.0,0.0,77,0.00,,,0.06,Wunderground v.1.15,2013-01-02 21:15:00,
2013-01-02 16:25:00,59.4,52.9,30.00,East,84,0.0,0.0,79,0.00,,,0.06,Wunderground v.1.15,2013-01-02 21:25:00,
2013-01-02 16:30:00,59.4,52.9,30.00,East,84,0.0,0.0,79,0.00,,,0.06,Wunderground v.1.15,2013-01-02 21:30:00,
2013-01-02 16:35:00,59.3,53.1,30.00,East,84,0.0,0.0,80,0.00,,,0.06,Wunderground v.1.15,2013-01-02 21:35:00,
2013-01-02 16:40:00,59.3,53.1,30.01,East,84,0.0,0.0,80,0.00,,,0.06,Wunderground v.1.15,2013-01-02 21:40:00,
2013-01-02 16:50:00,59.1,53.3,30.00,East,84,0.0,0.0,81,0.00,,,0.06,Wunderground v.1.15,2013-01-02 21:50:00,
2013-01-02 16:55:00,58.9,52.7,30.00,East,84,0.0,0.0,80,0.00,,,0.06,Wunderground v.1.15,2013-01-02 21:55:00,
2013-01-02 17:00:00,58.8,52.6,30.01,East,84,0.0,0.0,80,0.00,,,0.06,Wunderground v.1.15,2013-01-02 22:00:00,
2013-01-02 17:05:00,58.7,52.5,30.01,East,84,0.0,0.0,80,0.00,,,0.06,Wunderground v.1.15,2013-01-02 22:05:00,
2013-01-02 17:15:00,58.6,52.8,30.01,East,84,0.0,0.0,81,0.00,,,0.06,Wunderground v.1.15,2013-01-02 22:15:00,
2013-01-02 17:25:00,58.3,52.5,30.02,East,84,0.0,0.0,81,0.00,,,0.06,Wunderground v.1.15,2013-01-02 22:25:00,
2013-01-02 17:30:00,58.2,52.4,30.02,East,84,0.0,0.0,81,0.00,,,0.06,Wunderground v.1.15,2013-01-02 22:30:00,
2013-01-02 17:35:00,58.0,52.2,30.02,East,84,0.0,0.0,81,0.00,,,0.06,Wunderground v.1.15,2013-01-02 22:35:00,
2013-01-02 17:40:00,57.9,52.1,30.02,East,84,0.0,0.0,81,0.00,,,0.06,Wunderground v.1.15,2013-01-02 22:40:00,
2013-01-02 17:45:00,57.8,52.3,30.02,East,84,0.0,0.0,82,0.00,,,0.06,Wunderground v.1.15,2013-01-02 22:45:00,
2013-01-02 17:55:00,57.2,51.8,30.02,East,84,0.0,0.0,82,0.00,,,0.06,Wunderground v.1.15,2013-01-02 22:55:00,
2013-01-02 18:00:00,57.1,52.0,30.02,East,84,0.0,0.0,83,0.00,,,0.06,Wunderground v.1.15,2013-01-02 23:00:00,
2013-01-02 18:05:00,56.9,51.8,30.02,East,84,0.0,0.0,83,0.00,,,0.06,Wunderground v.1.15,2013-01-02 23:05:00,
2013-01-02 18:15:00,56.5,51.4,30.02,East,84,0.0,0.0,83,0.00,,,0.06,Wunderground v.1.15,2013-01-02 23:15:00,
2013-01-02 18:20:00,56.4,51.6,30.03,East,84,0.0,0.0,84,0.00,,,0.06,Wunderground v.1.15,2013-01-02 23:20:00,
2013-01-02 18:30:00,56.0,51.6,30.03,East,84,0.0,0.0,85,0.00,,,0.06,Wunderground v.1.15,2013-01-02 23:30:00,
2013-01-02 18:35:00,55.9,51.5,30.03,East,84,0.0,0.0,85,0.00,,,0.06,Wunderground v.1.15,2013-01-02 23:35:00,
2013-01-02 18:40:00,55.8,51.7,30.03,East,84,0.0,0.0,86,0.00,,,0.06,Wunderground v.1.15,2013-01-02 23:40:00,
2013-01-02 18:45:00,55.7,51.6,30.03,East,84,0.0,0.0,86,0.00,,,0.06,Wunderground v.1.15,2013-01-02 23:45:00,
2013-01-02 18:55:00,55.4,51.3,30.04,East,84,0.0,0.0,86,0.00,,,0.06,Wunderground v.1.15,2013-01-02 23:55:00,
2013-01-02 19:05:00,55.1,51.3,30.03,East,84,0.0,0.0,87,0.00,,,0.06,Wunderground v.1.15,2013-01-03 00:05:00,
2013-01-02 19:15:00,54.9,51.1,30.04,East,84,0.0,0.0,87,0.00,,,0.06,Wunderground v.1.15,2013-01-03 00:15:00,
2013-01-02 19:25:00,54.7,51.2,30.04,East,84,0.0,0.0,88,0.00,,,0.06,Wunderground v.1.15,2013-01-03 00:25:00,
2013-01-02 19:35:00,54.5,51.0,30.04,East,84,0.0,0.0,88,0.00,,,0.06,Wunderground v.1.15,2013-01-03 00:35:00,
2013-01-02 19:40:00,54.4,50.9,30.05,East,84,0.0,0.0,88,0.00,,,0.06,Wunderground v.1.15,2013-01-03 00:40:00,
2013-01-02 19:45:00,54.4,50.9,30.05,East,84,0.0,0.0,88,0.00,,,0.06,Wunderground v.1.15,2013-01-03 00:45:00,
2013-01-02 19:50:00,54.3,51.1,30.04,East,84,0.0,0.0,89,0.00,,,0.06,Wunderground v.1.15,2013-01-03 00:50:00,
2013-01-02 19:55:00,54.2,51.0,30.05,East,84,0.0,0.0,89,0.00,,,0.06,Wunderground v.1.15,2013-01-03 00:55:00,
2013-01-02 20:00:00,54.1,50.9,30.05,East,84,0.0,0.0,89,0.00,,,0.06,Wunderground v.1.15,2013-01-03 01:00:00,
2013-01-02 20:05:00,54.1,50.9,30.05,East,84,0.0,0.0,89,0.00,,,0.06,Wunderground v.1.15,2013-01-03 01:05:00,
2013-01-02 20:15:00,53.9,50.7,30.05,East,84,0.0,0.0,89,0.00,,,0.06,Wunderground v.1.15,2013-01-03 01:15:00,
2013-01-02 20:20:00,53.8,50.9,30.06,East,84,0.0,0.0,90,0.00,,,0.06,Wunderground v.1.15,2013-01-03 01:20:00,
2013-01-02 20:25:00,53.8,50.9,30.06,East,84,0.0,0.0,90,0.00,,,0.06,Wunderground v.1.15,2013-01-03 01:25:00,
2013-01-02 20:30:00,53.7,50.8,30.06,East,84,0.0,0.0,90,0.00,,,0.06,Wunderground v.1.15,2013-01-03 01:30:00,
2013-01-02 20:35:00,53.6,50.7,30.05,East,84,0.0,0.0,90,0.00,,,0.06,Wunderground v.1.15,2013-01-03 01:35:00,
2013-01-02 20:40:00,53.6,50.7,30.06,East,84,0.0,0.0,90,0.00,,,0.06,Wunderground v.1.15,2013-01-03 01:40:00,
2013-01-02 20:45:00,53.5,50.6,30.06,East,84,0.0,0.0,90,0.00,,,0.06,Wunderground v.1.15,2013-01-03 01:45:00,
2013-01-02 20:50:00,53.5,50.9,30.07,East,84,0.0,0.0,91,0.00,,,0.06,Wunderground v.1.15,2013-01-03 01:50:00,
2013-01-02 20:55:00,53.5,50.9,30.08,East,84,0.0,1.0,91,0.00,,,0.06,Wunderground v.1.15,2013-01-03 01:55:00,
2013-01-02 21:00:00,53.5,50.9,30.08,ESE,102,1.0,1.0,91,0.00,,,0.06,Wunderground v.1.15,2013-01-03 02:00:00,
2013-01-02 21:05:00,53.5,50.9,30.08,ESE,110,1.0,2.0,91,0.00,,,0.06,Wunderground v.1.15,2013-01-03 02:05:00,
2013-01-02 21:15:00,53.6,51.0,30.08,ESE,110,0.0,1.0,91,0.00,,,0.06,Wunderground v.1.15,2013-01-03 02:15:00,
2013-01-02 21:20:00,53.6,51.0,30.09,ESE,110,0.0,0.0,91,0.00,,,0.06,Wunderground v.1.15,2013-01-03 02:20:00,
2013-01-02 21:25:00,53.5,51.2,30.10,ESE,110,0.0,0.0,92,0.00,,,0.06,Wunderground v.1.15,2013-01-03 02:25:00,
2013-01-02 21:30:00,53.5,51.2,30.11,ESE,110,0.0,0.0,92,0.00,,,0.06,Wunderground v.1.15,2013-01-03 02:30:00,
2013-01-02 21:35:00,53.5,51.2,30.11,ESE,110,0.0,0.0,92,0.00,,,0.06,Wunderground v.1.15,2013-01-03 02:35:00,
2013-01-02 21:40:00,53.5,51.2,30.11,ESE,110,0.0,0.0,92,0.00,,,0.06,Wunderground v.1.15,2013-01-03 02:40:00,
2013-01-02 21:50:00,53.5,51.2,30.10,ESE,110,0.0,1.0,92,0.00,,,0.06,Wunderground v.1.15,2013-01-03 02:50:00,
2013-01-02 21:55:00,53.5,51.2,30.10,ESE,110,0.0,1.0,92,0.00,,,0.06,Wunderground v.1.15,2013-01-03 02:55:00,
2013-01-02 22:00:00,53.5,51.2,30.10,ESE,110,0.0,0.0,92,0.00,,,0.06,Wunderground v.1.15,2013-01-03 03:00:00,
2013-01-02 22:05:00,53.4,51.1,30.10,ESE,110,0.0,0.0,92,0.00,,,0.06,Wunderground v.1.15,2013-01-03 03:05:00,
2013-01-02 22:15:00,53.4,51.1,30.10,ESE,110,0.0,0.0,92,0.00,,,0.06,Wunderground v.1.15,2013-01-03 03:15:00,
2013-01-02 22:20:00,53.4,51.1,30.10,ESE,110,0.0,2.0,92,0.00,,,0.06,Wunderground v.1.15,2013-01-03 03:20:00,
2013-01-02 22:25:00,53.3,51.0,30.09,ESE,110,0.0,2.0,92,0.00,,,0.06,Wunderground v.1.15,2013-01-03 03:25:00,
2013-01-02 22:30:00,53.3,51.0,30.09,ESE,110,0.0,0.0,92,0.00,,,0.06,Wunderground v.1.15,2013-01-03 03:30:00,
2013-01-02 22:40:00,53.2,50.9,30.10,ESE,110,0.0,0.0,92,0.00,,,0.06,Wunderground v.1.15,2013-01-03 03:40:00,
2013-01-02 22:50:00,53.2,50.9,30.10,ESE,110,0.0,0.0,92,0.00,,,0.06,Wunderground v.1.15,2013-01-03 03:50:00,
2013-01-02 22:55:00,53.2,51.2,30.10,ESE,110,0.0,0.0,93,0.00,,,0.06,Wunderground v.1.15,2013-01-03 03:55:00,
2013-01-02 23:00:00,53.1,51.1,30.10,ESE,110,0.0,0.0,93,0.00,,,0.06,Wunderground v.1.15,2013-01-03 04:00:00,
2013-01-02 23:05:00,53.1,51.1,30.10,ESE,110,0.0,0.0,93,0.00,,,0.06,Wunderground v.1.15,2013-01-03 04:05:00,
2013-01-02 23:15:00,53.0,51.0,30.10,ESE,110,0.0,1.0,93,0.00,,,0.06,Wunderground v.1.15,2013-01-03 04:15:00,
2013-01-02 23:20:00,53.0,51.0,30.10,ESE,110,0.0,0.0,93,0.00,,,0.06,Wunderground v.1.15,2013-01-03 04:20:00,
2013-01-02 23:30:00,52.9,50.6,30.09,ESE,110,0.0,0.0,92,0.00,,,0.06,Wunderground v.1.15,2013-01-03 04:30:00,
2013-01-02 23:35:00,52.8,50.5,30.09,ESE,110,0.0,0.0,92,0.00,,,0.06,Wunderground v.1.15,2013-01-03 04:35:00,
2013-01-02 23:40:00,52.8,50.5,30.09,ESE,110,0.0,0.0,92,0.00,,,0.06,Wunderground v.1.15,2013-01-03 04:40:00,
2013-01-02 23:45:00,52.7,50.4,30.08,ESE,110,0.0,0.0,92,0.00,,,0.06,Wunderground v.1.15,2013-01-03 04:45:00,
2013-01-02 23:50:00,52.7,50.4,30.09,ESE,110,0.0,0.0,92,0.00,,,0.06,Wunderground v.1.15,2013-01-03 04:50:00,
2013-01-02 23:55:00,52.7,50.4,30.09,ESE,110,0.0,0.0,92,0.00,,,0.06,Wunderground v.1.15,2013-01-03 04:55:00,